Time,TemperatureF,DewpointF,PressureIn,WindDirection,WindDirectionDegrees,WindSpeedMPH,WindSpeedGustMPH,Humidity,HourlyPrecipIn,Conditions,Clouds,dailyrainin,SolarRadiationWatts/m^2,SoftwareType,DateUTC
2013-10-02 00:05:00,56.0,53.0,-100.00,North,2,2.0,5.0,91,0.00,,,0.00,0.000000,,2013-10-02 04:05:00,
2013-10-02 00:14:00,56.0,53.0,-100.00,North,2,2.0,5.0,91,0.00,,,0.00,0.000000,,2013-10-02 04:14:00,
2013-10-02 00:24:00,56.0,53.0,-100.00,North,2,2.0,5.0,91,0.00,,,0.00,0.000000,,2013-10-02 04:24:00,
2013-10-02 00:54:00,56.0,54.0,-100.00,North,2,2.0,4.0,92,0.00,,,0.00,0.000000,,2013-10-02 04:54:00,
2013-10-02 01:04:00,56.0,54.0,-100.00,North,2,2.0,4.0,92,0.00,,,0.00,0.000000,,2013-10-02 05:04:00,
2013-10-02 01:13:00,56.0,54.0,-100.00,North,2,2.0,4.0,92,0.00,,,0.00,0.000000,,2013-10-02 05:13:00,
2013-10-02 01:23:00,56.0,54.0,-100.00,North,2,2.0,4.0,92,0.00,,,0.00,0.000000,,2013-10-02 05:23:00,
2013-10-02 01:53:00,56.0,54.0,-100.00,North,2,2.0,5.0,93,0.00,,,0.00,0.000000,,2013-10-02 05:53:00,
2013-10-02 02:03:00,56.0,54.0,-100.00,North,2,2.0,5.0,93,0.00,,,0.00,0.000000,,2013-10-02 06:03:00,
2013-10-02 02:12:00,56.0,54.0,-100.00,North,2,2.0,5.0,93,0.00,,,0.00,0.000000,,2013-10-02 06:12:00,
2013-10-02 02:22:00,56.0,54.0,-100.00,North,2,2.0,5.0,93,0.00,,,0.00,0.000000,,2013-10-02 06:22:00,
2013-10-02 02:52:00,56.0,54.0,-100.00,North,3,2.0,5.0,93,0.00,,,0.00,0.000000,,2013-10-02 06:52:00,
2013-10-02 03:02:00,56.0,54.0,-100.00,North,3,2.0,5.0,93,0.00,,,0.00,0.000000,,2013-10-02 07:02:00,
2013-10-02 03:12:00,56.0,54.0,-100.00,North,3,2.0,5.0,93,0.00,,,0.00,0.000000,,2013-10-02 07:12:00,
2013-10-02 03:22:00,56.0,54.0,-100.00,North,3,2.0,5.0,93,0.00,,,0.00,0.000000,,2013-10-02 07:22:00,
2013-10-02 03:52:00,56.0,54.0,-100.00,North,4,2.0,5.0,94,0.00,,,-99.99,0.000000,,2013-10-02 07:52:00,
2013-10-02 04:03:00,56.0,54.0,-100.00,North,4,2.0,5.0,94,0.00,,,-99.99,0.000000,,2013-10-02 08:03:00,
2013-10-02 04:11:00,56.0,54.0,-100.00,North,4,2.0,5.0,94,0.00,,,-99.99,0.000000,,2013-10-02 08:11:00,
2013-10-02 04:22:00,56.0,54.0,-100.00,North,4,2.0,5.0,94,0.00,,,-99.99,0.000000,,2013-10-02 08:22:00,
2013-10-02 04:52:00,56.0,54.0,-100.00,North,6,3.0,6.0,92,0.00,,,0.00,0.000000,,2013-10-02 08:52:00,
2013-10-02 05:02:00,56.0,54.0,-100.00,North,6,3.0,6.0,92,0.00,,,0.00,0.000000,,2013-10-02 09:02:00,
2013-10-02 05:11:00,56.0,54.0,-100.00,North,6,3.0,6.0,92,0.00,,,0.00,0.000000,,2013-10-02 09:11:00,
2013-10-02 05:21:00,56.0,54.0,-100.00,North,6,3.0,6.0,92,0.00,,,0.00,0.000000,,2013-10-02 09:21:00,
2013-10-02 05:54:00,56.0,54.0,-100.00,NNW,336,3.0,6.0,93,0.00,,,0.00,0.000000,,2013-10-02 09:54:00,
2013-10-02 06:03:00,56.0,54.0,-100.00,NNW,336,3.0,6.0,93,0.00,,,0.00,0.000000,,2013-10-02 10:03:00,
2013-10-02 06:12:00,56.0,54.0,-100.00,NNW,336,3.0,6.0,93,0.00,,,0.00,0.000000,,2013-10-02 10:12:00,
2013-10-02 06:23:00,56.0,54.0,-100.00,NNW,336,3.0,6.0,93,0.00,,,0.00,0.000000,,2013-10-02 10:23:00,
2013-10-02 06:53:00,56.0,54.0,-100.00,NNW,342,3.0,8.0,92,0.00,,,0.00,0.000000,,2013-10-02 10:53:00,
2013-10-02 07:03:00,56.0,54.0,-100.00,NNW,342,3.0,8.0,92,0.00,,,0.00,0.000000,,2013-10-02 11:03:00,
2013-10-02 07:12:00,56.0,54.0,-100.00,NNW,342,3.0,8.0,92,0.00,,,0.00,0.000000,,2013-10-02 11:12:00,
2013-10-02 07:22:00,56.0,54.0,-100.00,NNW,342,3.0,8.0,92,0.00,,,0.00,0.000000,,2013-10-02 11:22:00,
2013-10-02 07:52:00,57.0,54.0,-100.00,North,350,2.0,9.0,89,0.00,,,0.00,20.000000,,2013-10-02 11:52:00,
2013-10-02 08:02:00,57.0,54.0,-100.00,North,350,2.0,9.0,89,0.00,,,0.00,20.000000,,2013-10-02 12:02:00,
2013-10-02 08:12:00,57.0,54.0,-100.00,North,350,2.0,9.0,89,0.00,,,0.00,20.000000,,2013-10-02 12:12:00,
2013-10-02 08:22:00,57.0,54.0,-100.00,North,350,2.0,9.0,89,0.00,,,0.00,20.000000,,2013-10-02 12:22:00,
2013-10-02 08:52:00,63.0,55.0,-100.00,NW,308,4.0,12.0,76,0.00,,,0.00,171.000000,,2013-10-02 12:52:00,
2013-10-02 09:02:00,63.0,55.0,-100.00,NW,308,4.0,12.0,76,0.00,,,0.00,171.000000,,2013-10-02 13:02:00,
2013-10-02 09:11:00,63.0,55.0,-100.00,NW,308,4.0,12.0,76,0.00,,,0.00,171.000000,,2013-10-02 13:11:00,
2013-10-02 09:22:00,63.0,55.0,-100.00,NW,308,4.0,12.0,76,0.00,,,0.00,171.000000,,2013-10-02 13:22:00,
2013-10-02 09:52:00,68.0,54.0,-100.00,NNW,333,5.0,12.0,62,0.00,,,0.00,302.000000,,2013-10-02 13:52:00,
2013-10-02 10:02:00,68.0,54.0,-100.00,NNW,333,5.0,12.0,62,0.00,,,0.00,302.000000,,2013-10-02 14:02:00,
2013-10-02 10:11:00,68.0,54.0,-100.00,NNW,333,5.0,12.0,62,0.00,,,0.00,302.000000,,2013-10-02 14:11:00,
2013-10-02 10:21:00,68.0,54.0,-100.00,NNW,333,5.0,12.0,62,0.00,,,0.00,302.000000,,2013-10-02 14:21:00,
2013-10-02 10:52:00,72.0,57.0,-100.00,NW,306,5.0,14.0,60,0.00,,,0.00,487.000000,,2013-10-02 14:52:00,
2013-10-02 11:02:00,72.0,57.0,-100.00,NW,306,5.0,14.0,60,0.00,,,0.00,487.000000,,2013-10-02 15:02:00,
2013-10-02 11:11:00,72.0,57.0,-100.00,NW,306,5.0,14.0,60,0.00,,,0.00,487.000000,,2013-10-02 15:11:00,
2013-10-02 11:22:00,72.0,57.0,-100.00,NW,306,5.0,14.0,60,0.00,,,0.00,487.000000,,2013-10-02 15:22:00,
2013-10-02 11:54:00,77.0,59.0,-100.00,NW,312,6.0,14.0,53,0.00,,,0.00,595.000000,,2013-10-02 15:54:00,
2013-10-02 12:03:00,77.0,59.0,-100.00,NW,312,6.0,14.0,53,0.00,,,0.00,595.000000,,2013-10-02 16:03:00,
2013-10-02 12:13:00,77.0,59.0,-100.00,NW,312,6.0,14.0,53,0.00,,,0.00,595.000000,,2013-10-02 16:13:00,
2013-10-02 12:23:00,77.0,59.0,-100.00,NW,312,6.0,14.0,53,0.00,,,0.00,595.000000,,2013-10-02 16:23:00,
2013-10-02 12:53:00,79.0,59.0,-100.00,West,267,6.0,16.0,50,0.00,,,0.00,638.000000,,2013-10-02 16:53:00,
2013-10-02 13:02:00,79.0,59.0,-100.00,West,267,6.0,16.0,50,0.00,,,0.00,638.000000,,2013-10-02 17:02:00,
2013-10-02 13:12:00,79.0,59.0,-100.00,West,267,6.0,16.0,50,0.00,,,0.00,638.000000,,2013-10-02 17:12:00,
2013-10-02 13:23:00,79.0,59.0,-100.00,West,267,6.0,16.0,50,0.00,,,0.00,638.000000,,2013-10-02 17:23:00,
2013-10-02 13:53:00,81.0,58.0,-100.00,NW,319,6.0,20.0,46,0.00,,,0.00,640.000000,,2013-10-02 17:53:00,
2013-10-02 14:02:00,81.0,58.0,-100.00,NW,319,6.0,20.0,46,0.00,,,0.00,640.000000,,2013-10-02 18:02:00,
2013-10-02 14:12:00,81.0,58.0,-100.00,NW,319,6.0,20.0,46,0.00,,,0.00,640.000000,,2013-10-02 18:12:00,
2013-10-02 14:22:00,81.0,58.0,-100.00,NW,319,6.0,20.0,46,0.00,,,0.00,640.000000,,2013-10-02 18:22:00,
2013-10-02 14:52:00,82.0,58.0,-100.00,NW,313,6.0,14.0,44,0.00,,,0.00,547.000000,,2013-10-02 18:52:00,
2013-10-02 15:02:00,82.0,58.0,-100.00,NW,313,6.0,14.0,44,0.00,,,0.00,547.000000,,2013-10-02 19:02:00,
2013-10-02 15:12:00,82.0,58.0,-100.00,NW,313,6.0,14.0,44,0.00,,,0.00,547.000000,,2013-10-02 19:12:00,
2013-10-02 15:22:00,82.0,58.0,-100.00,NW,313,6.0,14.0,44,0.00,,,0.00,547.000000,,2013-10-02 19:22:00,
2013-10-02 15:52:00,82.0,57.0,-100.00,NW,313,6.0,15.0,43,0.00,,,0.00,446.000000,,2013-10-02 19:52:00,
2013-10-02 16:02:00,82.0,57.0,-100.00,NW,313,6.0,15.0,43,0.00,,,0.00,446.000000,,2013-10-02 20:02:00,
2013-10-02 16:11:00,82.0,57.0,-100.00,NW,313,6.0,15.0,43,0.00,,,0.00,446.000000,,2013-10-02 20:11:00,
2013-10-02 16:22:00,82.0,57.0,-100.00,NW,313,6.0,15.0,43,0.00,,,0.00,446.000000,,2013-10-02 20:22:00,
2013-10-02 16:52:00,80.0,57.0,-100.00,NNW,328,3.0,13.0,46,0.00,,,0.00,319.000000,,2013-10-02 20:52:00,
2013-10-02 17:02:00,80.0,57.0,-100.00,NNW,328,3.0,13.0,46,0.00,,,0.00,319.000000,,2013-10-02 21:02:00,
2013-10-02 17:11:00,80.0,57.0,-100.00,NNW,328,3.0,13.0,46,0.00,,,0.00,319.000000,,2013-10-02 21:11:00,
2013-10-02 17:22:00,80.0,57.0,-100.00,NNW,328,3.0,13.0,46,0.00,,,0.00,319.000000,,2013-10-02 21:22:00,
2013-10-02 17:55:00,78.0,57.0,-100.00,NW,306,3.0,8.0,49,0.00,,,0.00,112.000000,,2013-10-02 21:55:00,
2013-10-02 18:04:00,78.0,57.0,-100.00,NW,306,3.0,8.0,49,0.00,,,0.00,112.000000,,2013-10-02 22:04:00,
2013-10-02 18:13:00,78.0,57.0,-100.00,NW,306,3.0,8.0,49,0.00,,,0.00,112.000000,,2013-10-02 22:13:00,
2013-10-02 18:24:00,78.0,57.0,-100.00,NW,306,3.0,8.0,49,0.00,,,0.00,112.000000,,2013-10-02 22:24:00,
2013-10-02 18:54:00,69.0,57.0,-100.00,North,2,2.0,10.0,65,0.00,,,0.00,18.000000,,2013-10-02 22:54:00,
2013-10-02 19:04:00,69.0,57.0,-100.00,North,2,2.0,10.0,65,0.00,,,0.00,18.000000,,2013-10-02 23:04:00,
2013-10-02 19:12:00,69.0,57.0,-100.00,North,2,2.0,10.0,65,0.00,,,0.00,18.000000,,2013-10-02 23:12:00,
2013-10-02 19:22:00,69.0,57.0,-100.00,North,2,2.0,10.0,65,0.00,,,0.00,18.000000,,2013-10-02 23:22:00,
2013-10-02 19:52:00,65.0,56.0,-100.00,SE,126,1.0,4.0,73,0.00,,,0.00,1.000000,,2013-10-02 23:52:00,
2013-10-02 20:02:00,65.0,56.0,-100.00,SE,126,1.0,4.0,73,0.00,,,0.00,1.000000,,2013-10-03 00:02:00,
2013-10-02 20:12:00,65.0,56.0,-100.00,SE,126,1.0,4.0,73,0.00,,,0.00,1.000000,,2013-10-03 00:12:00,
2013-10-02 20:22:00,65.0,56.0,-100.00,SE,126,1.0,4.0,73,0.00,,,0.00,1.000000,,2013-10-03 00:22:00,
2013-10-02 20:52:00,63.0,57.0,-100.00,WNW,286,3.0,8.0,82,0.00,,,0.00,0.000000,,2013-10-03 00:52:00,
2013-10-02 21:02:00,63.0,57.0,-100.00,WNW,286,3.0,8.0,82,0.00,,,0.00,0.000000,,2013-10-03 01:02:00,
2013-10-02 21:11:00,63.0,57.0,-100.00,WNW,286,3.0,8.0,82,0.00,,,0.00,0.000000,,2013-10-03 01:11:00,
2013-10-02 21:23:00,63.0,57.0,-100.00,WNW,286,3.0,8.0,82,0.00,,,0.00,0.000000,,2013-10-03 01:23:00,
2013-10-02 21:52:00,63.0,57.0,-100.00,WSW,246,2.0,7.0,80,0.00,,,0.00,0.000000,,2013-10-03 01:52:00,
2013-10-02 22:02:00,63.0,57.0,-100.00,WSW,246,2.0,7.0,80,0.00,,,0.00,0.000000,,2013-10-03 02:02:00,
2013-10-02 22:11:00,63.0,57.0,-100.00,WSW,246,2.0,7.0,80,0.00,,,0.00,0.000000,,2013-10-03 02:11:00,
2013-10-02 22:22:00,63.0,57.0,-100.00,WSW,246,2.0,7.0,80,0.00,,,0.00,0.000000,,2013-10-03 02:22:00,
2013-10-02 23:11:00,62.0,57.0,-100.00,North,4,2.0,6.0,84,0.00,,,0.00,0.000000,,2013-10-03 03:11:00,
2013-10-02 23:22:00,62.0,57.0,-100.00,North,4,2.0,6.0,84,0.00,,,0.00,0.000000,,2013-10-03 03:22:00,
2013-10-02 23:55:00,60.0,57.0,-100.00,North,4,2.0,5.0,89,0.00,,,0.00,0.000000,,2013-10-03 03:55:00,